Time,TemperatureF,DewpointF,PressureIn,WindDirection,WindDirectionDegrees,WindSpeedMPH,WindSpeedGustMPH,Humidity,HourlyPrecipIn,Conditions,Clouds,dailyrainin,SoftwareType,DateUTC
2013-03-12 00:00:00,38.0,32.0,-100.00,NNW,342,0.0,-999.0,78,0.00,,,0.00,,2013-03-12 05:00:00,
2013-03-12 00:32:00,38.0,32.0,-100.00,NNW,342,0.0,-999.0,78,0.00,,,0.00,,2013-03-12 05:32:00,
2013-03-12 00:42:00,38.0,32.0,-100.00,NNW,342,0.0,-999.0,78,0.00,,,0.00,,2013-03-12 05:42:00,
2013-03-12 00:52:00,38.0,32.0,-100.00,NNW,342,0.0,-999.0,78,0.00,,,0.00,,2013-03-12 05:52:00,
2013-03-12 01:00:00,40.0,34.0,-100.00,NE,42,0.0,-999.0,78,0.00,,,0.00,,2013-03-12 06:00:00,
2013-03-12 01:32:00,40.0,34.0,-100.00,NE,42,0.0,-999.0,78,0.00,,,0.00,,2013-03-12 06:32:00,
2013-03-12 01:42:00,40.0,34.0,-100.00,NE,42,0.0,-999.0,78,0.00,,,0.00,,2013-03-12 06:42:00,
2013-03-12 01:52:00,40.0,34.0,-100.00,NE,42,0.0,-999.0,78,0.00,,,0.00,,2013-03-12 06:52:00,
2013-03-12 02:00:00,34.0,30.0,-100.00,SSE,150,1.0,-999.0,88,0.00,,,0.00,,2013-03-12 07:00:00,
2013-03-12 02:32:00,34.0,30.0,-100.00,SSE,150,1.0,-999.0,88,0.00,,,0.00,,2013-03-12 07:32:00,
2013-03-12 02:42:00,34.0,30.0,-100.00,SSE,150,1.0,-999.0,88,0.00,,,0.00,,2013-03-12 07:42:00,
2013-03-12 02:52:00,34.0,30.0,-100.00,SSE,150,1.0,-999.0,88,0.00,,,0.00,,2013-03-12 07:52:00,
2013-03-12 03:00:00,39.0,34.0,-100.00,NNE,23,0.0,-999.0,83,0.00,,,0.00,,2013-03-12 08:00:00,
2013-03-12 03:33:00,39.0,34.0,-100.00,NNE,23,0.0,-999.0,83,0.00,,,0.00,,2013-03-12 08:33:00,
2013-03-12 03:42:00,39.0,34.0,-100.00,NNE,23,0.0,-999.0,83,0.00,,,0.00,,2013-03-12 08:42:00,
2013-03-12 03:52:00,39.0,34.0,-100.00,NNE,23,0.0,-999.0,83,0.00,,,0.00,,2013-03-12 08:52:00,
2013-03-12 04:00:00,38.0,33.0,-100.00,ENE,62,1.0,-999.0,81,0.00,,,0.00,,2013-03-12 09:00:00,
2013-03-12 04:32:00,38.0,33.0,-100.00,ENE,62,1.0,-999.0,81,0.00,,,0.00,,2013-03-12 09:32:00,
2013-03-12 04:43:00,38.0,33.0,-100.00,ENE,62,1.0,-999.0,81,0.00,,,0.00,,2013-03-12 09:43:00,
2013-03-12 04:52:00,38.0,33.0,-100.00,ENE,62,1.0,-999.0,81,0.00,,,0.00,,2013-03-12 09:52:00,
2013-03-12 05:00:00,38.0,33.0,-100.00,East,101,1.0,-999.0,81,0.00,,,0.00,,2013-03-12 10:00:00,
2013-03-12 05:32:00,38.0,33.0,-100.00,East,101,1.0,-999.0,81,0.00,,,0.00,,2013-03-12 10:32:00,
2013-03-12 05:42:00,38.0,33.0,-100.00,East,101,1.0,-999.0,81,0.00,,,0.00,,2013-03-12 10:42:00,
2013-03-12 05:52:00,38.0,33.0,-100.00,East,101,1.0,-999.0,81,0.00,,,0.00,,2013-03-12 10:52:00,
2013-03-12 06:00:00,38.0,31.0,-100.00,NE,53,1.0,-999.0,77,0.00,,,0.00,,2013-03-12 11:00:00,
2013-03-12 06:32:00,38.0,31.0,-100.00,NE,53,1.0,-999.0,77,0.00,,,0.00,,2013-03-12 11:32:00,
2013-03-12 06:42:00,38.0,31.0,-100.00,NE,53,1.0,-999.0,77,0.00,,,0.00,,2013-03-12 11:42:00,
2013-03-12 06:52:00,38.0,31.0,-100.00,NE,53,1.0,-999.0,77,0.00,,,0.00,,2013-03-12 11:52:00,
2013-03-12 07:00:00,37.0,32.0,-100.00,ENE,60,1.0,-999.0,82,0.00,,,0.00,,2013-03-12 12:00:00,
2013-03-12 07:32:00,37.0,32.0,-100.00,ENE,60,1.0,-999.0,82,0.00,,,0.00,,2013-03-12 12:32:00,
2013-03-12 07:42:00,37.0,32.0,-100.00,ENE,60,1.0,-999.0,82,0.00,,,0.00,,2013-03-12 12:42:00,
2013-03-12 07:52:00,37.0,32.0,-100.00,ENE,60,1.0,-999.0,82,0.00,,,0.00,,2013-03-12 12:52:00,
2013-03-12 08:00:00,38.0,33.0,-100.00,ESE,108,0.0,-999.0,83,0.00,,,0.00,,2013-03-12 13:00:00,
2013-03-12 08:32:00,38.0,33.0,-100.00,ESE,108,0.0,-999.0,83,0.00,,,0.00,,2013-03-12 13:32:00,
2013-03-12 08:43:00,38.0,33.0,-100.00,ESE,108,0.0,-999.0,83,0.00,,,0.00,,2013-03-12 13:43:00,
2013-03-12 08:52:00,38.0,33.0,-100.00,ESE,108,0.0,-999.0,83,0.00,,,0.00,,2013-03-12 13:52:00,
2013-03-12 09:00:00,39.0,31.0,-100.00,ESE,113,1.0,-999.0,73,0.00,,,0.00,,2013-03-12 14:00:00,
2013-03-12 09:33:00,39.0,31.0,-100.00,ESE,113,1.0,-999.0,73,0.00,,,0.00,,2013-03-12 14:33:00,
2013-03-12 09:43:00,39.0,31.0,-100.00,ESE,113,1.0,-999.0,73,0.00,,,0.00,,2013-03-12 14:43:00,
2013-03-12 09:53:00,39.0,31.0,-100.00,ESE,113,1.0,-999.0,73,0.00,,,0.00,,2013-03-12 14:53:00,
2013-03-12 10:00:00,43.0,32.0,-100.00,ESE,103,1.0,-999.0,64,0.00,,,0.00,,2013-03-12 15:00:00,
2013-03-12 10:32:00,43.0,32.0,-100.00,ESE,103,1.0,-999.0,64,0.00,,,0.00,,2013-03-12 15:32:00,
2013-03-12 10:43:00,43.0,32.0,-100.00,ESE,103,1.0,-999.0,64,0.00,,,0.00,,2013-03-12 15:43:00,
2013-03-12 10:53:00,43.0,32.0,-100.00,ESE,103,1.0,-999.0,64,0.00,,,0.00,,2013-03-12 15:53:00,
2013-03-12 11:00:00,50.0,22.0,-100.00,NNW,337,1.0,-999.0,33,0.00,,,0.00,,2013-03-12 16:00:00,
2013-03-12 11:33:00,50.0,22.0,-100.00,NNW,337,1.0,-999.0,33,0.00,,,0.00,,2013-03-12 16:33:00,
2013-03-12 11:43:00,50.0,22.0,-100.00,NNW,337,1.0,-999.0,33,0.00,,,0.00,,2013-03-12 16:43:00,
2013-03-12 11:53:00,50.0,22.0,-100.00,NNW,337,1.0,-999.0,33,0.00,,,0.00,,2013-03-12 16:53:00,
2013-03-12 12:00:00,53.0,25.0,-100.00,ESE,110,1.0,-999.0,34,0.00,,,0.00,,2013-03-12 17:00:00,
2013-03-12 12:44:00,53.0,25.0,-100.00,ESE,110,1.0,-999.0,34,0.00,,,0.00,,2013-03-12 17:44:00,
2013-03-12 12:53:00,53.0,25.0,-100.00,ESE,110,1.0,-999.0,34,0.00,,,0.00,,2013-03-12 17:53:00,
2013-03-12 13:00:00,54.0,27.0,-100.00,East,91,1.0,-999.0,34,0.00,,,0.00,,2013-03-12 18:00:00,
2013-03-12 13:53:00,54.0,27.0,-100.00,East,91,1.0,-999.0,34,0.00,,,0.00,,2013-03-12 18:53:00,
2013-03-12 14:00:00,56.0,32.0,-100.00,East,98,1.0,-999.0,41,0.00,,,0.00,,2013-03-12 19:00:00,
2013-03-12 14:33:00,56.0,32.0,-100.00,East,98,1.0,-999.0,41,0.00,,,0.00,,2013-03-12 19:33:00,
2013-03-12 14:44:00,56.0,32.0,-100.00,East,98,1.0,-999.0,41,0.00,,,0.00,,2013-03-12 19:44:00,
2013-03-12 14:53:00,56.0,32.0,-100.00,East,98,1.0,-999.0,41,0.00,,,0.00,,2013-03-12 19:53:00,
2013-03-12 15:00:00,59.0,30.0,-100.00,ESE,106,1.0,-999.0,34,0.00,,,0.00,,2013-03-12 20:00:00,
2013-03-12 15:32:00,59.0,30.0,-100.00,ESE,106,1.0,-999.0,34,0.00,,,0.00,,2013-03-12 20:32:00,
2013-03-12 15:42:00,59.0,30.0,-100.00,ESE,106,1.0,-999.0,34,0.00,,,0.00,,2013-03-12 20:42:00,
2013-03-12 15:53:00,59.0,30.0,-100.00,ESE,106,1.0,-999.0,34,0.00,,,0.00,,2013-03-12 20:53:00,
2013-03-12 16:00:00,61.0,28.0,-100.00,East,88,1.0,-999.0,28,0.00,,,0.00,,2013-03-12 21:00:00,
2013-03-12 16:33:00,61.0,28.0,-100.00,East,88,1.0,-999.0,28,0.00,,,0.00,,2013-03-12 21:33:00,
2013-03-12 16:43:00,61.0,28.0,-100.00,East,88,1.0,-999.0,28,0.00,,,0.00,,2013-03-12 21:43:00,
2013-03-12 16:53:00,61.0,28.0,-100.00,East,88,1.0,-999.0,28,0.00,,,0.00,,2013-03-12 21:53:00,
2013-03-12 17:00:00,63.0,28.0,-100.00,NNW,346,0.0,-999.0,26,0.00,,,0.00,,2013-03-12 22:00:00,
2013-03-12 17:33:00,63.0,28.0,-100.00,NNW,346,0.0,-999.0,26,0.00,,,0.00,,2013-03-12 22:33:00,
2013-03-12 17:43:00,63.0,28.0,-100.00,NNW,346,0.0,-999.0,26,0.00,,,0.00,,2013-03-12 22:43:00,
2013-03-12 17:53:00,63.0,28.0,-100.00,NNW,346,0.0,-999.0,26,0.00,,,0.00,,2013-03-12 22:53:00,
2013-03-12 18:00:00,62.0,32.0,-100.00,NW,325,1.0,-999.0,32,0.00,,,0.00,,2013-03-12 23:00:00,
2013-03-12 18:34:00,62.0,32.0,-100.00,NW,325,1.0,-999.0,32,0.00,,,0.00,,2013-03-12 23:34:00,
2013-03-12 18:43:00,62.0,32.0,-100.00,NW,325,1.0,-999.0,32,0.00,,,0.00,,2013-03-12 23:43:00,
2013-03-12 18:52:00,62.0,32.0,-100.00,NW,325,1.0,-999.0,32,0.00,,,0.00,,2013-03-12 23:52:00,
2013-03-12 19:00:00,61.0,32.0,-100.00,NW,310,5.0,-999.0,33,0.00,,,0.00,,2013-03-13 00:00:00,
2013-03-12 19:33:00,61.0,32.0,-100.00,NW,310,5.0,-999.0,33,0.00,,,0.00,,2013-03-13 00:33:00,
2013-03-12 19:42:00,61.0,32.0,-100.00,NW,310,5.0,-999.0,33,0.00,,,0.00,,2013-03-13 00:42:00,
2013-03-12 19:53:00,61.0,32.0,-100.00,NW,310,5.0,-999.0,33,0.00,,,0.00,,2013-03-13 00:53:00,
2013-03-12 20:00:00,58.0,39.0,-100.00,NW,308,5.0,-999.0,49,0.00,,,0.00,,2013-03-13 01:00:00,
2013-03-12 20:32:00,58.0,39.0,-100.00,NW,308,5.0,-999.0,49,0.00,,,0.00,,2013-03-13 01:32:00,
2013-03-12 20:43:00,58.0,39.0,-100.00,NW,308,5.0,-999.0,49,0.00,,,0.00,,2013-03-13 01:43:00,
2013-03-12 20:53:00,58.0,39.0,-100.00,NW,308,5.0,-999.0,49,0.00,,,0.00,,2013-03-13 01:53:00,
2013-03-12 21:00:00,56.0,38.0,-100.00,NW,313,4.0,-999.0,51,0.00,,,0.00,,2013-03-13 02:00:00,
2013-03-12 21:32:00,56.0,38.0,-100.00,NW,313,4.0,-999.0,51,0.00,,,0.00,,2013-03-13 02:32:00,
2013-03-12 21:43:00,56.0,38.0,-100.00,NW,313,4.0,-999.0,51,0.00,,,0.00,,2013-03-13 02:43:00,
2013-03-12 21:52:00,56.0,38.0,-100.00,NW,313,4.0,-999.0,51,0.00,,,0.00,,2013-03-13 02:52:00,
2013-03-12 22:00:00,53.0,41.0,-100.00,NW,309,4.0,-999.0,63,0.00,,,0.00,,2013-03-13 03:00:00,
2013-03-12 22:32:00,53.0,41.0,-100.00,NW,309,4.0,-999.0,63,0.00,,,0.00,,2013-03-13 03:32:00,
2013-03-12 22:42:00,53.0,41.0,-100.00,NW,309,4.0,-999.0,63,0.00,,,0.00,,2013-03-13 03:42:00,
2013-03-12 22:53:00,53.0,41.0,-100.00,NW,309,4.0,-999.0,63,0.00,,,0.00,,2013-03-13 03:53:00,
2013-03-12 23:00:00,52.0,40.0,-100.00,NW,312,2.0,-999.0,62,0.00,,,0.00,,2013-03-13 04:00:00,
2013-03-12 23:32:00,52.0,40.0,-100.00,NW,312,2.0,-999.0,62,0.00,,,0.00,,2013-03-13 04:32:00,
2013-03-12 23:43:00,52.0,40.0,-100.00,NW,312,2.0,-999.0,62,0.00,,,0.00,,2013-03-13 04:43:00,
2013-03-12 23:53:00,52.0,40.0,-100.00,NW,312,2.0,-999.0,62,0.00,,,0.00,,2013-03-13 04:53:00,